Temp
9 10 10 9 9 10 8 8 7 9 11 13 14 13 13 12 12 11 11 10 10 10 10 10 10 10 9 9 9 10 9 9 9 8 8 8 8 7 7 8 8 8 7 7
4 8 8 8 9 10 10 10 10 10 10 12 12 13 12 12 11 11 11 9 9 9 9 9 9 10 10 10 10 9 10 9 8 8 8 8 8 7 7 7 7 7 7 7
6 9 6 7 9 11 11 10 10 9 11 12 12 11 11 10 10 10 10 9 9 9 9 9 9 8 8 9 10 9 9 9 8 8 8 8 7 7 7 6 7 7 6 7
5 6 6 12 12 12 11 11 12 10 11 11 10 10 9 9 10 10 9 8 8 8 8 8 8 8 8 8 9 9 9 9 9 8 7 7 7 6 6 6 6 6 6 6
4 7 9 9 12 10 10 10 11 12 11 10 9 9 9 10 9 8 7 7 7 7 7 7 7 7 7 7 7 8 9 9 9 8 8 7 6 6 6 6 5 6 6 6
5 5 7 11 9 9 8 9 9 8 8 7 7 8 9 8 6 6 6 6 6 6 6 6 6 6 6 6 6 8 8 8 8 7 7 7 7 6 5 6 5 5 5 5
5 5 8 11 10 8 7 8 7 6 6 6 7 7 6 6 6 6 6 6 6 5 5 5 5 5 5 5 5 6 7 7 7 7 7 7 6 6 5 5 5 5 5 5
5 5 6 9 8 8 9 8 7 7 6 6 6 6 5 5 5 5 5 5 5 4 4 4 4 4 4 4 5 5 4 5 7 7 7 7 6 6 5 5 4 4 4 4
8 9 11 9 8 8 8 7 6 6 5 5 5 5 5 5 5 4 4 4 4 3 3 3 4 4 4 4 4 4 4 4 5 6 6 6 6 5 5 4 4 4 3 3
7 8 8 8 7 7 7 5 4 4 4 4 4 4 4 3 3 3 2 2 2 2 2 2 2 2 2 3 3 4 4 4 4 4 5 5 5 5 4 4 4 3 3 3
6 6 6 7 6 5 5 5 4 4 3 3 3 2 2 2 2 1 1 1 1 1 1 0 1 1 1 1 2 3 3 3 3 3 4 4 3 4 4 4 4 4 3 3
5 6 6 4 3 4 4 3 2 1 2 2 2 2 2 1 1 0 -0 0 0 -0 -0 -0 -0 -0 -0 0 1 2 2 3 2 2 3 3 3 3 2 2 3 2 2 3
5 4 4 3 3 2 1 1 0 1 1 1 1 1 1 1 0 -0 1 0 -1 -1 -1 -1 -1 -1 -0 -0 -0 1 1 1 2 1 2 3 3 2 1 1 2 2 2 2
3 1 1 1 0 -0 -0 -0 0 1 0 1 1 1 1 1 0 0 0 1 -0 -1 -1 -0 -1 -1 -1 -1 -1 -0 -0 0 1 0 0 1 2 2 1 0 1 2 2 1
-0 -0 0 1 1 1 1 1 1 0 1 1 0 -0 -0 -0 -0 -1 -0 -0 -1 -1 -0 -0 -1 -1 -2 -2 -1 -1 -1 -0 0 0 0 1 1 1 1 -0 0 0 1 0
0 1 0 1 1 1 1 1 0 0 -0 -0 -1 -1 -1 -1 -1 -0 -0 -1 -1 -1 -0 -1 -1 -1 -2 -2 -2 -1 -1 -1 -1 -1 -0 0 1 0 0 -1 -0 -0 1 1
-1 -0 0 1 1 1 0 -0 -0 -1 -1 -1 -1 -1 -2 -2 -2 -1 -0 -0 -1 -1 -1 0 -1 -2 -2 -1 -2 -1 -2 -1 -1 -0 -1 -0 0 -0 -1 -1 -1 -1 0 1
-0 -0 -0 -0 -0 -0 -0 -0 -1 -1 -1 -1 -1 -2 -2 -2 -2 -2 -2 -1 -1 -0 1 -1 -1 -2 -2 -1 -2 -2 -2 -2 -2 -1 -1 -1 -0 -1 -1 -1 -1 -1 -1 -0
-0 -0 -0 0 -0 -0 -1 -1 -1 -1 -1 -2 -2 -2 -2 -2 -2 -2 -3 -2 -1 -1 -0 -1 -1 -2 -2 -1 -2 -2 -2 -2 -2 -2 -1 -1 -1 -1 -1 -2 -2 -1 -1 -1
-0 -0 -0 -0 -1 -1 -1 -1 -1 -2 -2 -2 -2 -3 -3 -3 -3 -3 -3 -3 -2 -2 -2 -2 -2 -2 -2 -2 -2 -2 -2 -2 -2 -2 -2 -1 -2 -2 -2 -2 -2 -2 -1 -1
-1 -1 -1 -1 -2 -2 -2 -2 -2 -3 -2 -2 -3 -3 -3 -2 -2 -3 -4 -4 -2 -1 -2 -2 -2 -2 -2 -2 -3 -3 -2 -2 -2 -2 -2 -2 -2 -2 -2 -2 -2 -2 -1 -1
-2 -1 -2 -2 -2 -2 -2 -2 -3 -3 -3 -3 -3 -3 -3 -2 -2 -1 -3 -3 -2 -2 -2 -2 -2 -2 -3 -3 -2 -2 -2 -2 -2 -2 -2 -3 -2 -2 -3 -3 -2 -2 -2 -2
-2 -2 -3 -3 -3 -3 -3 -3 -2 -2 -3 -3 -3 -3 -4 -3 -2 -3 -2 -3 -4 -3 -3 -2 -2 -3 -3 -3 -3 -3 -3 -2 -2 -2 -3 -3 -3 -3 -3 -3 -2 -2 -2 -2
-3 -3 -3 -3 -3 -4 -4 -2 -2 -2 -2 -2 -3 -3 -4 -4 -3 -3 -3 -4 -4 -4 -3 -3 -3 -3 -3 -3 -3 -3 -3 -3 -3 -3 -3 -3 -3 -3 -3 -3 -2 -2 -2 -3
-3 -3 -4 -4 -4 -4 -4 -2 -2 -2 -2 -3 -4 -4 -4 -4 -4 -4 -5 -4 -4 -3 -3 -3 -3 -3 -3 -3 -3 -3 -3 -4 -3 -3 -3 -3 -3 -3 -3 -3 -3 -3 -4 -4
-4 -4 -4 -4 -4 -4 -4 -3 -3 -3 -4 -4 -5 -5 -5 -5 -5 -5 -5 -5 -4 -3 -3 -3 -3 -3 -3 -3 -3 -3 -3 -3 -3 -3 -3 -3 -3 -3 -3 -4 -4 -5 -5 -5
-4 -4 -4 -4 -4 -3 -3 -3 -4 -4 -5 -5 -5 -5 -5 -5 -5 -6 -5 -5 -4 -4 -3 -4 -3 -3 -3 -3 -3 -3 -3 -3 -3 -3 -3 -3 -4 -4 -4 -5 -5 -6 -6 -6
Height
1515 1510 1507 1503 1498 1497 1497 1493 1495 1472 1468 1452 1453 1456 1455 1455 1454 1451 1449 1446 1444 1440 1437 1435 1432 1428 1425 1422 1419 1415 1412 1409 1406 1407 1407 1406 1405 1405 1404 1401 1399 1397 1395 1392
1520 1510 1503 1497 1491 1480 1478 1479 1476 1469 1465 1460 1456 1452 1455 1454 1453 1450 1448 1445 1442 1439 1436 1432 1428 1425 1420 1417 1413 1410 1407 1405 1402 1401 1401 1400 1399 1398 1397 1396 1394 1392 1389 1388
1501 1498 1503 1491 1469 1464 1463 1464 1466 1467 1455 1455 1454 1456 1456 1454 1452 1450 1447 1445 1442 1438 1434 1430 1425 1421 1416 1412 1409 1406 1402 1400 1398 1396 1394 1392 1392 1391 1391 1390 1388 1387 1384 1382
1508 1508 1494 1462 1460 1458 1460 1459 1455 1458 1455 1456 1458 1458 1457 1454 1450 1447 1446 1444 1440 1435 1430 1425 1420 1416 1411 1407 1404 1400 1397 1395 1392 1390 1389 1388 1386 1385 1385 1384 1383 1382 1381 1378
1511 1492 1473 1470 1455 1460 1460 1456 1455 1449 1455 1459 1459 1457 1452 1449 1448 1447 1445 1440 1435 1430 1425 1420 1415 1410 1406 1402 1397 1394 1390 1389 1387 1384 1382 1382 1380 1379 1379 1379 1378 1377 1376 1374
1504 1499 1475 1454 1460 1462 1463 1455 1461 1462 1462 1462 1458 1451 1446 1447 1446 1443 1439 1434 1428 1423 1419 1414 1409 1406 1401 1396 1392 1387 1385 1383 1381 1378 1376 1374 1374 1374 1373 1373 1373 1372 1371 1370
1497 1489 1465 1455 1458 1462 1464 1462 1463 1464 1461 1458 1456 1452 1448 1444 1439 1435 1429 1424 1420 1416 1412 1407 1403 1398 1394 1389 1383 1381 1379 1375 1372 1370 1369 1368 1367 1367 1367 1367 1367 1367 1366 1365
1492 1487 1474 1459 1461 1462 1459 1457 1458 1456 1454 1452 1450 1447 1444 1438 1434 1430 1425 1419 1413 1407 1402 1399 1395 1391 1385 1381 1377 1374 1371 1366 1363 1361 1360 1359 1360 1359 1360 1361 1361 1361 1362 1361
1472 1456 1450 1457 1461 1460 1458 1456 1457 1454 1451 1448 1442 1438 1435 1431 1428 1423 1419 1414 1408 1402 1395 1390 1387 1384 1378 1373 1369 1366 1362 1358 1354 1352 1350 1350 1350 1352 1352 1353 1354 1354 1356 1357
1468 1457 1458 1456 1458 1458 1456 1454 1453 1452 1448 1442 1437 1434 1430 1425 1420 1415 1410 1406 1402 1396 1389 1383 1378 1374 1370 1364 1361 1357 1352 1348 1345 1344 1343 1342 1341 1343 1344 1345 1346 1349 1348 1351
1459 1460 1459 1455 1455 1454 1451 1449 1446 1443 1440 1436 1433 1428 1424 1419 1415 1410 1405 1400 1395 1389 1383 1375 1369 1364 1359 1355 1352 1348 1344 1339 1336 1335 1334 1333 1333 1334 1337 1338 1340 1342 1343 1345
1453 1457 1454 1451 1453 1450 1445 1443 1440 1437 1433 1431 1428 1423 1419 1414 1410 1404 1399 1395 1390 1383 1377 1368 1361 1354 1350 1345 1342 1338 1334 1331 1329 1327 1324 1324 1324 1325 1328 1331 1333 1336 1338 1340
1452 1452 1450 1448 1446 1445 1441 1438 1434 1431 1428 1425 1421 1418 1413 1408 1403 1398 1394 1388 1383 1377 1370 1363 1355 1349 1343 1338 1334 1329 1326 1323 1322 1320 1316 1315 1314 1315 1317 1321 1325 1328 1332 1334
1450 1448 1446 1446 1442 1439 1437 1433 1430 1427 1423 1420 1416 1413 1408 1402 1397 1393 1388 1382 1376 1370 1364 1358 1350 1342 1336 1331 1326 1322 1318 1314 1312 1310 1309 1308 1308 1308 1308 1310 1314 1319 1324 1328
1447 1447 1445 1441 1438 1435 1432 1429 1426 1423 1419 1416 1413 1409 1404 1399 1393 1388 1382 1377 1370 1364 1357 1351 1343 1336 1331 1325 1319 1314 1310 1306 1304 1302 1300 1300 1301 1301 1300 1303 1306 1311 1316 1322
1444 1442 1439 1438 1435 1432 1429 1426 1422 1417 1413 1409 1406 1401 1397 1392 1387 1380 1375 1370 1365 1357 1350 1343 1336 1329 1324 1318 1311 1306 1302 1299 1296 1294 1293 1293 1293 1293 1293 1295 1298 1301 1307 1314
1440 1437 1435 1432 1430 1427 1424 1421 1418 1412 1407 1403 1398 1394 1390 1384 1379 1374 1369 1363 1358 1351 1344 1338 1330 1323 1317 1311 1305 1298 1294 1290 1288 1287 1285 1285 1285 1285 1286 1287 1290 1294 1299 1306
1435 1433 1431 1429 1425 1422 1418 1415 1411 1406 1401 1396 1392 1387 1382 1378 1372 1366 1361 1354 1348 1342 1338 1331 1325 1318 1312 1305 1299 1292 1287 1283 1281 1279 1278 1277 1277 1278 1279 1281 1283 1287 1292 1299
1431 1428 1425 1421 1418 1414 1410 1405 1402 1398 1393 1389 1384 1379 1375 1370 1364 1358 1353 1347 1341 1334 1329 1325 1318 1312 1305 1299 1292 1286 1281 1276 1273 1272 1271 1271 1271 1272 1273 1276 1278 1282 1286 1293
1424 1420 1416 1412 1408 1404 1400 1396 1391 1387 1383 1379 1375 1371 1365 1360 1356 1351 1345 1338 1335 1329 1324 1318 1312 1305 1299 1292 1286 1280 1275 1270 1268 1266 1265 1265 1265 1266 1268 1271 1275 1278 1283 1290
1416 1411 1407 1402 1397 1393 1390 1386 1381 1377 1372 1370 1367 1363 1358 1353 1348 1343 1336 1329 1325 1323 1317 1311 1305 1299 1293 1286 1280 1275 1270 1266 1263 1261 1260 1260 1261 1263 1265 1268 1271 1275 1281 1288
1405 1401 1397 1394 1390 1385 1381 1376 1373 1368 1364 1360 1356 1353 1348 1344 1340 1335 1331 1327 1318 1315 1310 1304 1299 1294 1288 1282 1275 1270 1265 1261 1259 1258 1257 1257 1258 1260 1264 1267 1271 1275 1281 1286
1395 1391 1386 1383 1379 1375 1370 1365 1361 1358 1354 1350 1346 1342 1338 1335 1332 1328 1320 1319 1314 1310 1304 1298 1294 1289 1284 1277 1271 1266 1262 1259 1257 1256 1256 1256 1258 1260 1263 1267 1272 1277 1283 1289
1382 1379 1375 1371 1368 1364 1358 1352 1351 1348 1344 1340 1336 1332 1329 1324 1320 1319 1314 1309 1306 1303 1298 1293 1289 1285 1279 1274 1268 1264 1261 1258 1258 1257 1257 1258 1260 1263 1266 1270 1275 1280 1286 1291
1370 1367 1363 1359 1355 1350 1347 1343 1340 1336 1333 1329 1326 1323 1319 1316 1314 1309 1306 1302 1299 1296 1292 1288 1285 1281 1277 1273 1268 1264 1262 1260 1260 1260 1260 1262 1264 1267 1271 1275 1280 1284 1289 1294
1359 1355 1351 1348 1344 1340 1337 1333 1329 1326 1323 1319 1316 1313 1310 1308 1306 1303 1299 1296 1293 1290 1287 1285 1282 1279 1276 1273 1270 1267 1266 1264 1264 1265 1266 1268 1271 1273 1277 1282 1286 1290 1294 1298
1347 1344 1340 1336 1332 1329 1326 1322 1318 1314 1313 1310 1306 1305 1303 1300 1298 1296 1293 1290 1288 1285 1283 1282 1280 1278 1276 1275 1273 1272 1271 1271 1272 1273 1274 1276 1278 1281 1285 1288 1292 1295 1299 1302
Wind_Speed
20 22 21 22 23 22 21 21 15 22 22 25 21 21 15 9 12 21 19 16 20 22 21 20 21 21 20 21 22 22 23 24 25 26 26 26 26 25 23 23 21 20 18 15
9 18 21 21 21 25 24 22 24 27 29 25 27 6 7 9 15 20 21 17 22 25 26 26 30 29 29 28 26 25 23 24 22 23 27 27 27 26 24 23 21 20 16 14
15 14 12 14 18 12 9 14 15 16 21 11 10 10 13 15 20 20 20 19 27 31 31 31 31 31 31 32 30 26 26 25 25 25 26 25 24 24 23 22 21 20 17 15
8 8 10 6 10 10 12 15 13 17 14 12 10 14 17 21 19 20 21 28 32 32 32 30 33 33 33 33 32 31 28 27 27 26 27 26 24 24 23 21 21 19 17 14
4 10 18 20 6 3 4 11 9 12 4 10 18 22 20 18 21 22 31 34 34 33 31 31 34 32 30 31 32 32 31 30 28 27 26 26 26 24 23 22 20 18 16 15
5 6 7 6 4 3 2 12 9 12 15 25 29 14 12 25 27 34 32 32 33 33 33 32 32 30 29 30 33 36 32 29 29 29 28 28 26 25 23 22 21 19 16 14
13 9 11 9 4 2 6 5 18 22 22 20 14 18 29 33 36 35 35 37 36 31 30 32 31 31 33 32 35 34 34 34 31 31 30 29 27 27 25 23 21 20 17 14
6 6 9 10 4 4 16 27 28 28 19 20 26 29 32 34 31 32 34 36 38 33 32 32 31 30 31 32 34 34 30 33 32 32 30 31 30 29 27 24 22 20 18 16
12 10 17 32 27 28 26 29 29 27 29 32 33 33 34 32 32 34 31 31 30 33 37 36 33 30 32 34 34 32 31 29 32 30 30 31 31 32 30 26 24 22 20 18
20 18 19 22 33 34 31 25 25 31 34 32 32 32 34 33 34 32 32 33 33 34 36 38 36 34 34 36 34 32 32 32 32 30 29 29 31 32 32 30 28 25 23 21
20 22 30 34 31 33 33 34 33 34 30 30 30 31 30 29 29 29 30 30 34 35 36 39 39 38 37 35 33 32 32 33 35 31 31 30 30 32 34 33 31 28 26 23
18 29 26 27 27 34 33 28 24 25 26 25 25 27 26 27 27 27 28 29 34 33 36 41 42 41 38 34 31 31 32 32 30 31 31 29 30 31 34 32 29 28 25 22
28 29 32 32 34 23 21 26 23 22 24 24 23 24 25 28 27 27 30 34 34 37 37 41 40 39 37 34 31 30 31 33 30 29 32 29 28 29 35 34 31 29 26 24
30 18 18 15 20 18 16 18 20 21 23 23 23 25 24 31 31 31 33 37 36 36 40 41 41 40 35 30 29 29 30 31 30 29 30 29 29 31 33 31 30 32 30 27
9 12 15 13 13 14 15 17 20 23 25 27 26 25 25 26 31 34 35 35 35 35 41 42 40 38 32 33 32 30 27 28 26 27 28 28 27 32 30 27 26 29 30 27
1 6 14 15 17 18 20 23 24 26 26 28 29 29 28 29 35 36 36 34 33 37 42 42 41 33 35 34 33 32 30 24 24 26 25 26 28 31 32 28 28 29 31 29
13 17 17 17 18 20 24 26 27 30 31 30 32 32 34 33 33 35 38 39 38 39 41 39 36 35 36 34 33 32 28 24 22 24 25 27 26 29 33 31 31 32 31 30
18 20 21 22 27 28 28 30 31 32 33 34 33 34 33 32 33 37 38 41 44 44 41 36 33 35 36 33 30 30 29 27 22 23 24 26 27 29 31 33 34 34 32 29
21 22 23 24 29 32 31 33 33 33 34 34 33 34 33 36 36 38 37 40 42 43 42 36 34 36 34 31 29 29 28 25 22 23 23 24 25 26 28 31 33 33 32 32
26 31 36 33 32 31 34 37 37 35 37 34 31 31 34 38 35 35 36 38 36 38 37 35 34 35 32 31 28 27 26 23 22 21 21 20 23 24 25 28 31 32 31 33
30 31 34 36 37 37 36 36 35 34 35 33 31 32 34 35 35 36 34 35 40 37 33 34 33 32 30 29 29 28 25 22 19 17 17 18 19 20 23 27 30 28 30 33
32 32 33 33 35 37 37 36 34 36 36 35 35 36 35 34 35 39 35 35 40 33 35 33 31 29 29 30 29 25 21 17 14 12 12 12 14 17 20 25 28 29 33 33
33 34 34 33 34 34 35 38 38 36 36 36 35 37 36 37 37 35 41 35 33 32 33 30 28 26 27 26 23 19 15 12 9 8 7 7 11 15 21 25 27 27 27 26
34 35 35 36 34 33 35 38 35 34 36 38 37 32 31 34 33 32 34 33 31 29 29 25 24 23 22 21 17 13 9 6 5 3 3 6 10 14 18 21 23 25 25 24
40 39 39 39 36 36 35 36 37 38 39 37 34 33 32 31 28 32 30 31 27 26 24 22 19 18 15 13 11 8 5 3 2 3 6 9 12 16 19 22 23 24 23 21
37 36 36 35 36 38 37 37 38 37 35 34 33 30 29 27 28 29 29 27 24 23 20 18 15 11 7 5 8 9 10 10 11 14 16 18 19 22 23 24 23 22 21 20
38 36 36 35 36 36 36 36 34 34 33 32 33 31 29 28 28 27 25 23 21 18 16 12 9 2 5 7 9 11 13 14 15 16 18 20 21 22 21 20 19 19 18 16
Wind_Direction
261 278 283 277 276 274 256 234 251 272 273 277 295 306 300 315 340 345 344 338 346 342 342 334 326 320 314 307 302 299 287 285 271 265 269 275 275 278 280 283 287 294 299 311
279 274 269 277 276 264 258 256 256 261 269 279 291 312 317 303 333 338 333 329 334 334 330 325 327 320 318 319 311 303 294 284 279 267 268 273 274 276 277 280 283 286 288 294
280 304 330 281 256 254 256 231 244 251 253 317 277 329 330 314 321 321 327 327 326 320 317 314 313 311 305 309 310 301 294 289 279 271 271 271 272 272 274 276 279 281 281 283
289 311 266 298 298 271 264 269 248 251 271 308 321 323 322 305 299 320 324 319 312 309 309 308 307 309 307 301 302 303 294 291 285 276 271 270 268 269 271 271 273 276 277 278
252 256 284 290 296 15 357 310 341 279 290 343 328 319 305 319 331 322 313 308 305 304 304 302 300 303 306 299 295 297 296 293 287 282 274 269 267 267 268 267 268 269 270 271
209 258 269 71 127 59 12 288 37 18 345 331 322 309 311 328 315 308 307 305 304 303 301 299 300 299 299 292 290 289 291 299 294 284 275 267 267 266 264 265 266 264 264 265
236 253 269 294 343 73 274 345 330 324 313 318 312 310 312 314 311 310 310 311 310 309 303 299 298 295 293 294 284 287 288 293 291 284 276 269 265 263 261 261 260 260 257 255
233 251 271 25 87 249 334 320 323 319 323 313 307 308 311 308 308 308 308 308 311 313 311 307 303 299 294 289 295 291 289 288 284 282 275 267 260 260 257 254 252 250 251 250
268 266 303 314 305 309 314 313 318 321 314 315 308 307 306 306 304 305 309 312 314 313 311 309 306 303 298 295 293 292 291 283 285 281 277 265 257 254 252 248 246 244 245 245
266 275 278 293 310 302 299 321 311 311 311 309 307 305 304 306 306 306 309 311 314 312 311 310 310 304 297 295 295 291 285 282 279 274 274 268 257 252 249 247 244 240 240 239
277 291 291 294 304 310 308 308 305 305 305 304 307 306 308 308 308 308 309 310 313 313 314 312 312 306 301 300 297 289 282 277 275 271 268 264 253 256 252 251 249 247 241 242
283 291 294 302 301 299 305 310 311 308 304 302 305 305 308 310 309 313 309 311 318 316 317 316 318 315 312 308 300 290 281 277 271 270 273 262 254 249 249 248 245 241 239 241
287 295 299 303 302 301 308 305 303 298 299 304 310 311 311 312 311 314 321 318 315 322 316 323 322 315 314 312 306 292 282 279 274 267 270 265 252 244 240 239 240 239 234 233
290 309 305 303 295 298 299 304 305 302 299 298 301 305 312 316 312 314 315 317 321 319 322 328 320 316 318 314 304 296 288 279 274 266 263 267 258 241 236 233 239 234 230 228
295 289 279 286 291 293 302 302 302 304 306 306 307 309 312 311 311 311 316 318 315 314 322 324 325 320 318 311 308 304 297 284 272 266 265 265 260 242 239 230 237 238 227 221
244 261 266 281 285 302 310 309 307 305 307 307 306 309 307 306 313 321 322 320 315 310 319 319 322 321 323 319 315 308 296 289 277 262 262 265 257 247 237 227 225 229 224 218
250 263 283 280 287 296 304 301 299 300 304 304 303 304 306 311 309 316 322 324 320 317 319 324 320 321 321 319 320 311 304 292 274 267 262 259 259 249 240 230 219 220 221 216
253 269 280 284 283 280 292 298 295 295 299 300 301 302 299 303 301 309 319 325 321 321 323 324 322 321 319 318 318 316 305 296 283 270 268 261 256 249 240 228 219 214 213 204
268 273 280 289 291 280 285 294 293 292 294 297 300 297 296 302 307 310 311 317 319 316 324 321 321 319 319 320 318 315 309 300 286 276 269 262 257 248 237 225 216 210 208 191
292 288 292 285 293 288 286 290 295 292 295 297 298 297 298 305 303 302 308 306 314 314 317 314 317 320 321 320 319 318 313 302 290 279 274 263 254 245 232 223 213 206 201 190
291 287 286 285 291 294 288 290 293 291 295 297 292 291 295 303 315 313 302 303 316 318 315 315 318 319 321 323 322 317 311 300 294 286 277 265 248 236 225 216 207 203 193 188
289 288 287 283 286 288 288 292 291 290 293 291 292 294 295 295 305 311 305 301 314 314 315 314 317 318 320 322 320 317 310 303 295 289 277 254 240 229 219 207 197 193 189 186
288 289 286 283 284 285 287 289 295 298 300 302 298 295 289 289 296 299 305 309 305 311 313 311 314 316 319 323 321 318 314 312 304 291 274 239 219 210 201 194 190 185 178 175
288 289 285 288 287 284 281 294 299 301 303 306 303 299 297 294 297 301 304 303 305 309 311 309 312 315 322 326 326 327 327 334 330 296 220 194 184 182 179 173 168 164 165 163
287 287 288 287 286 286 290 296 297 298 301 299 296 295 297 298 292 305 305 305 308 310 308 307 310 317 328 338 350 356 5 40 79 135 145 148 150 153 151 150 149 149 149 151
289 286 285 284 282 283 289 297 290 292 292 291 293 292 295 297 298 302 304 307 307 309 303 304 310 319 335 19 37 59 71 83 102 113 118 124 130 132 135 138 140 143 147 148
286 285 283 281 286 289 291 288 283 282 286 286 285 290 293 296 297 304 306 306 305 305 295 298 303 313 89 88 83 89 95 102 111 118 122 126 129 131 134 137 137 133 132 136